Regional Weather Roundup
Issued by NWS

Home | Current Version | Previous Version | Graphics & Text | Print | Product List | Glossary On
Versions: 1 2 3 4 5 6 7 8 9 10 11 12 13 14 15 16 17 18 19 20 21 22 23 24 25 26 27 28 29 30 31 32 33 34 35 36 37 38 39 40 41 42 43 44 45 46 47 48 49 50
963
ASUS43 KMPX 260701
RWRMN
WEATHER ROUNDUP FOR MINNESOTA
NATIONAL WEATHER SERVICE TWIN CITIES/CHANHASSEN MN
200 AM CDT THU APR 26 2018


NOTE: "FAIR" INDICATES FEW OR NO CLOUDS BELOW 12,000 FEET WITH NO
SIGNIFICANT WEATHER AND/OR OBSTRUCTIONS TO VISIBILITY. N/A MEANS
CURRENT SKY AND/OR WEATHER CONDITIONS ARE NOT AVAILABLE.

MNZ060>063-068>070-260800-
   Twin Cities Metro

CITY           SKY/WX    TMP DP  RH WIND       PRES   REMARKS
TWIN CITIES    CLOUDY    47  34  60 CALM      29.92F
ST PAUL        FAIR      43  36  76 CALM      29.93F
CRYSTAL        FAIR      43  31  62 S5        29.90F
BLAINE         FAIR      43  34  70 S5        29.91F
LAKEVILLE      FAIR      39  34  81 CALM      29.93F
EDEN PRAIRIE   FAIR      45  34  65 S3        29.91F
SOUTH ST PAUL  FAIR      43  32  64 CALM      29.92F
LAKE ELMO      FAIR      37  32  81 CALM      29.93F
$$
MNZ001>005-007-008-013>017-022>024-027-028-260800-
   Northwest Minnesota

CITY           SKY/WX    TMP DP  RH WIND       PRES   REMARKS
BEMIDJI        FAIR      44  31  59 S8        29.77F
HALLOCK        FAIR      46  27  46 N15G24    29.85R
ROSEAU         FAIR      48  37  66 N16       29.80R
WARROAD        FAIR      48  37  66 N21G28    29.80R
THIEF RVR FALL FAIR      43  36  76 N9        29.81R
CROOKSTON      FAIR      46  37  71 N16       29.80R
FOSSTON        FAIR      43  32  65 SW6       29.79R
DETROIT LAKES  FAIR      48  32  53 SW8       29.80S
MOORHEAD       FAIR      46  36  66 S9        29.80R
PARK RAPIDS    FAIR      40  31  70 S7        29.80F
MAHNOMEN       FAIR      46  33  62 S13       29.77S
$$
MNZ006-009>011-018-025>026-260800-
   North Central Minnesota

CITY           SKY/WX    TMP DP  RH WIND       PRES   REMARKS
BAUDETTE       MOCLDY    42  32  67 SW6       29.75S
FLAG ISLAND    MOCLDY    45  34  65 N21G28    29.79R
INTL FALLS     MOCLDY    44  29  55 SW6       29.75F
WASKISH        FAIR      46  30  53 SW3       29.76S
BIG FORK       FAIR      43  28  56 S7        29.79F
GRAND RAPIDS   FAIR      42  27  55 S8        29.84F
CRANE LAKE     FAIR      39  27  60 S5        29.80F
ORR            FAIR      43  25  49 S6        29.77F
COOK           FAIR      45  27  49 S5        29.81F
WALKER         FAIR      44  30  57 SW10      29.79F
$$
MNZ012-019>021-037-260800-
   Northeast Minnesota

CITY           SKY/WX    TMP DP  RH WIND       PRES   REMARKS
DULUTH         FAIR      44  25  47 SW10      29.85F
ELY            FAIR      43  23  45 SW6       29.82F
HIBBING        FAIR      35  22  58 S5        29.82F WCI  31
EVELETH        FAIR      36  24  62 CALM      29.84F
DULUTH HARBOR  FAIR      34  30  86 CALM      29.88F
TWO HARBORS    FAIR      32  25  74 CALM      29.84F
SILVER BAY     FAIR      30  23  74 CALM      29.83F
GRAND MARAIS     N/A     31  24  75 CALM      29.85
G MARAIS ARPRT FAIR      34  18  51 CALM      29.83F
$$
MNZ029>031-032-039>041-046>048-054>057-064-260800-
   West Central Minnesota

CITY           SKY/WX    TMP DP  RH WIND       PRES   REMARKS
FERGUS FALLS   FAIR      45  34  65 S12       29.80F
WHEATON        CLOUDY    45  34  65 S10       29.83F
MORRIS         CLOUDY    41  36  81 S9        29.84S
ALEXANDRIA     FAIR      47  33  58 SW13      29.85F
ELBOW LAKE     FAIR      41  34  76 S12       29.83F
WADENA         FAIR      41  32  70 S7        29.81F
GLENWOOD       FAIR      39  34  81 S12       29.86F
APPLETON       CLOUDY    46  34  61 S7        29.85F
BENSON         CLOUDY    41  36  81 S8        29.87F
ORTONVILLE     CLOUDY    43  34  70 S9        29.83F
WILLMAR        FAIR      37  34  87 S6        29.90F
$$
MNZ033>034-036-042>043-049>051-058-059-260800-
   Central Minnesota

CITY           SKY/WX    TMP DP  RH WIND       PRES   REMARKS
ST CLOUD       FAIR      41  33  73 S7        29.88F
SAUK CENTRE    FAIR      42  33  71 S9        29.85F
PAYNESVILLE    FAIR      43  34  70 S7        29.89F
AITKIN         FAIR      39  28  65 S3        29.83F
PINE RIVER     FAIR      37  28  70 CALM      29.86F
BRAINERD       FAIR      45  29  53 S9        29.84F
STAPLES        FAIR      37  30  75 S8        29.83F
LONG PRAIRIE   FAIR      41  32  70 SE8       29.85F
LITTLE FALLS   FAIR      39  28  65 S5        29.86F
LITCHFIELD     FAIR      39  36  87 CALM      29.90F
BUFFALO        FAIR      41  34  75 S3        29.91F
MAPLE LAKE     FAIR      43  36  75 S5        29.91F
HUTCHINSON     FAIR      40  36  83 CALM      29.92F
$$
MNZ037-044-045-052-053-260800-
   East Central Minnesota

CITY           SKY/WX    TMP DP  RH WIND       PRES   REMARKS
PRINCETON      FAIR      43  32  65 CALM      29.89F
MORA           FAIR      36  30  80 CALM      29.90F
CAMBRIDGE      FAIR      45  30  57 S5        29.90F
RUSH CITY      FAIR      42  30  63 S3        29.90F
MOOSE LAKE     FAIR      32  25  74 CALM      29.85F
HINCKLEY       FAIR      32  28  86 CALM      29.89F
CLOQUET        FAIR      43  21  42 SW6       29.86F
MCGREGOR       FAIR      39  28  65 S5        29.85F
$$
MNZ071>073-080-081-089-090-097-098-260800-
   Southwest Minnesota

CITY           SKY/WX    TMP DP  RH WIND       PRES   REMARKS
MONTEVIDEO     CLOUDY    45  36  70 SW6       29.87F
GRANITE FALLS  CLOUDY    40  36  84 S8        29.90F
CANBY          CLOUDY    47  32  55 SW10G17   29.87F
MARSHALL       CLOUDY    42  34  73 SW13      29.89F
REDWOOD FALLS  CLOUDY    40  35  83 S7        29.90S
OLIVIA         PTCLDY    41  34  75 S5        29.89F
PIPESTONE      CLOUDY   N/A N/A N/A SW9       29.90F
WINDOM         CLOUDY    41  25  52 S6        29.92F
WORTHINGTON    CLOUDY    40  32  73 S9        29.93F
JACKSON        PTCLDY    41  34  75 S8        29.94F
TRACY          CLOUDY    46  33  60 SW12      29.89F
SLAYTON        CLOUDY    38  33  81 SW9       29.92F
$$
MNZ065>067-074>077-082>085-091>093-260800-
   South Central Minnesota

CITY           SKY/WX    TMP DP  RH WIND       PRES   REMARKS
MANKATO        FAIR      44  34  67 S8        29.93F
NEW ULM        CLOUDY    43  34  70 S7        29.91F
ST JAMES       PTCLDY    41  36  81 S8        29.93F
FAIRMONT       MOCLDY    42  36  79 S8        29.94F
GLENCOE        FAIR      44  35  72 CALM      29.91F
OWATONNA       FAIR      41  34  75 S5        29.93F
WASECA         FAIR      37  34  87 S5        29.94F
ALBERT LEA     FAIR      39  37  93 CALM      29.94F
$$
MNZ078>079-086>088-094>096-260800-
   Southeast Minnesota

CITY           SKY/WX    TMP DP  RH WIND       PRES   REMARKS
ROCHESTER      FAIR      40  33  76 SW6       29.95F
RED WING       FAIR      36  27  69 CALM      29.93F
STANTON        FAIR      38  33  82 SW3       29.92F
DODGE CENTER   FAIR      39  34  81 S3        29.93F
WINONA         FAIR      37  32  81 NW5       29.93F
AUSTIN         FAIR      37  36  93 CALM      29.94F
PRESTON        FAIR      40  30  68 SW3       29.95F
$$
ABBREVIATIONS USED IN REMARKS
   TC - TEMPERATURES IN CELSIUS
  WCI - WIND CHILL INDEX
   HX - HEAT INDEX
  VSB - VISIBILITY
$$




USA.gov is the U.S. government's official web portal to all federal, state and local government web resources and services.